Orbital Elements at Epoch 2459200.5 (2020-Dec-17.0) TDB
Reference: JPL 10 (heliocentric ecliptic J2000)
Element | Value | Uncertainty (1-sigma) | Units |
e | .1701809656020067 | 9.364e-08 | |
a | 2.267404944192704 | 1.3694e-08 | au |
q | 1.881535781379226 | 2.0664e-07 | au |
i | 6.328941225960031 | 9.2876e-06 | deg |
node | 236.3033910066566 | 4.8745e-05 | deg |
peri | 130.4630547783408 | 5.4616e-05 | deg |
M | 148.6587501837516 | 2.2874e-05 | deg |
tp | 2458685.532243805812 (2019-Jul-21.03224381) | 7.7811e-05 | TDB |
period | 1247.07352914481 3.41 | 1.1298e-05 3.093e-08 | d yr |
n | .2886758411485751 | 2.6153e-09 | deg/d |
Q | 2.653274107006182 | 1.6025e-08 | au |
|
| | Orbit Determination Parameters
Additional Information
|